Le nostre stazioni meteo in Italia

Pubblicità
Il mio iltempo24.it
Salsburgh, Gran Bretagna (99024): Temperatura & dewpoint: 22.03.2017 11:00:00 - 28.03.2017 11:00:00 (BST)Salsburgh, Gran Bretagna (99024): velocità del vento & gusts: 22.03.2017 11:00:00 - 28.03.2017 11:00:00 (BST)Salsburgh, Gran Bretagna (99024): direzione del vento: 22.03.2017 11:00:00 - 28.03.2017 11:00:00 (BST)Salsburgh, Gran Bretagna (99024): precipitazioni: 22.03.2017 11:00:00 - 28.03.2017 11:00:00 (BST)
Data & Tempo tt [°C] td [°C] ff [km/h] ff [kn] fx [km/h] fx [kn] dd rr [mm]
28.03.2017 11:00:00 - - - - - - - -
28.03.2017 10:00:00 4,5 4,5 9 5 - - E 0,0
28.03.2017 09:00:00 4,2 4,2 15 8 - - ENE 0,0
28.03.2017 08:00:00 4,0 4,0 13 7 - - ENE 0,0
28.03.2017 07:00:00 3,9 3,9 5 3 - - E 0,0
28.03.2017 06:00:00 3,8 3,8 8 4 - - ENE 0,0
28.03.2017 05:00:00 3,6 3,6 11 6 - - NE 0,0
28.03.2017 04:00:00 3,6 3,6 13 7 - - NE 0,0
28.03.2017 03:00:00 3,8 3,8 15 8 - - NE 0,0
28.03.2017 02:00:00 4,0 3,8 15 8 - - ENE 0,0
28.03.2017 01:00:00 4,2 4,0 13 7 - - E 0,0
28.03.2017 00:00:00 4,1 3,9 26 14 - - ENE 0,0
27.03.2017 23:00:00 4,4 4,2 22 12 - - ENE 0,0
27.03.2017 22:00:00 4,4 4,1 29 16 - - E 0,0
27.03.2017 21:00:00 4,6 4,0 28 15 - - E 0,0
27.03.2017 20:00:00 5,8 1,8 28 15 - - E 0,0
27.03.2017 19:00:00 7,6 0,7 24 13 - - E 0,0
27.03.2017 18:00:00 10,6 1,2 22 12 - - ENE 0,0
27.03.2017 17:00:00 12,3 3,1 24 13 - - ENE 0,0
27.03.2017 16:00:00 13,6 4,4 21 11 - - ENE 0,0
27.03.2017 15:00:00 13,8 3,8 18 10 - - ENE 0,0
27.03.2017 14:00:00 13,5 2,4 16 9 - - ENE 0,0
27.03.2017 13:00:00 12,8 2,2 18 10 - - E 0,0
27.03.2017 12:00:00 11,7 1,3 16 9 - - E 0,0
27.03.2017 11:00:00 9,5 3,4 18 10 - - E 0,0
27.03.2017 10:00:00 7,4 3,8 15 8 - - ENE 0,0
27.03.2017 09:00:00 6,1 3,3 16 9 - - ENE 0,0
27.03.2017 08:00:00 6,2 1,2 15 8 - - E 0,0
27.03.2017 07:00:00 6,0 2,5 15 8 - - E 0,0
27.03.2017 06:00:00 5,8 2,7 11 6 - - E 0,0
27.03.2017 05:00:00 6,8 1,8 11 6 - - E 0,0
27.03.2017 04:00:00 5,7 3,3 13 7 - - E 0,0
27.03.2017 03:00:00 5,4 3,2 15 8 - - E 0,0
27.03.2017 02:00:00 5,3 3,3 16 9 - - E 0,0
27.03.2017 01:00:00 5,8 3,7 15 8 - - ENE 0,0
27.03.2017 00:00:00 6,8 3,4 16 9 - - E 0,0
26.03.2017 23:00:00 6,3 4,4 28 15 - - E 0,0
26.03.2017 22:00:00 6,3 4,0 21 11 - - E 0,0
26.03.2017 21:00:00 7,3 4,3 21 11 - - E 0,0
26.03.2017 20:00:00 8,4 4,3 21 11 - - E 0,0
26.03.2017 19:00:00 10,3 4,7 18 10 - - E 0,0
26.03.2017 18:00:00 13,0 4,5 21 11 - - ENE 0,0
26.03.2017 17:00:00 14,2 4,8 18 10 - - E 0,0
26.03.2017 16:00:00 14,5 3,4 18 10 - - ENE 0,0
26.03.2017 15:00:00 14,9 3,3 21 11 - - ENE 0,0
26.03.2017 14:00:00 13,9 2,8 16 9 - - E 0,0
26.03.2017 13:00:00 13,5 4,1 18 10 - - E 0,0
26.03.2017 12:00:00 11,7 2,5 21 11 - - ENE 0,0
26.03.2017 11:00:00 10,5 0,9 18 10 - - ENE 0,0
26.03.2017 10:00:00 8,2 1,0 21 11 - - E 0,0
26.03.2017 09:00:00 6,7 1,0 18 10 - - E 0,0
26.03.2017 08:00:00 5,7 0,3 21 11 - - E 0,0
26.03.2017 07:00:00 5,7 -0,1 16 9 - - E 0,0
26.03.2017 06:00:00 6,5 -0,4 18 10 - - E 0,0
26.03.2017 05:00:00 6,9 -0,5 13 7 - - E 0,0
26.03.2017 04:00:00 7,4 0,1 13 7 - - E 0,0
26.03.2017 03:00:00 8,0 -0,5 11 6 - - ENE 0,0
26.03.2017 02:00:00 8,8 -0,4 4 2 - - ESE 0,0
26.03.2017 01:00:00 7,4 -0,7 5 3 - - SSE 0,0
26.03.2017 00:00:00 6,2 -0,8 9 5 - - S 0,0
25.03.2017 23:00:00 5,9 -0,6 11 6 - - S 0,0
25.03.2017 22:00:00 8,7 0,5 8 4 - - OSO 0,0
25.03.2017 21:00:00 9,0 -1,2 8 4 - - OSO 0,0
25.03.2017 20:00:00 10,6 -0,6 8 4 - - ONO 0,0
25.03.2017 19:00:00 12,6 -0,1 11 6 - - ONO 0,0
25.03.2017 18:00:00 14,0 -1,6 13 7 - - ONO 0,0
25.03.2017 17:00:00 13,9 -1,8 16 9 - - ONO 0,0
25.03.2017 16:00:00 14,0 -1,4 18 10 - - O 0,0
25.03.2017 15:00:00 13,6 -0,6 15 8 - - OSO 0,0
25.03.2017 14:00:00 12,8 1,0 15 8 - - OSO 0,0
25.03.2017 13:00:00 11,4 0,0 11 6 - - OSO 0,0
25.03.2017 12:00:00 10,0 -1,3 13 7 - - O 0,0
25.03.2017 11:00:00 8,5 -3,4 13 7 - - OSO 0,0
25.03.2017 10:00:00 6,8 -2,4 8 4 - - SO 0,0
25.03.2017 09:00:00 4,3 -2,4 5 3 - - S 0,0
25.03.2017 08:00:00 2,7 -3,8 5 3 - - SO 0,0
25.03.2017 07:00:00 1,4 -3,7 13 7 - - SSO 0,0
25.03.2017 06:00:00 2,0 -3,0 9 5 - - SO 0,0
25.03.2017 05:00:00 2,4 -4,1 9 5 - - OSO 0,0
25.03.2017 04:00:00 2,5 -4,4 9 5 - - S 0,0
25.03.2017 03:00:00 2,5 -3,6 13 7 - - SSO 0,0
25.03.2017 02:00:00 2,9 -2,0 11 6 - - S 0,0
25.03.2017 01:00:00 4,8 -1,5 5 3 - - SSO 0,0
25.03.2017 00:00:00 3,7 -1,9 11 6 - - SSE 0,0
24.03.2017 23:00:00 5,7 -2,2 5 3 - - S 0,0
24.03.2017 22:00:00 5,4 -1,3 8 4 - - SO 0,0
24.03.2017 21:00:00 6,1 -0,8 8 4 - - SO 0,0
24.03.2017 20:00:00 6,3 -0,7 11 6 - - OSO 0,0
24.03.2017 19:00:00 7,5 0,3 15 8 - - OSO 0,0
24.03.2017 18:00:00 9,4 1,1 15 8 - - OSO 0,0
24.03.2017 17:00:00 9,2 1,6 11 6 - - OSO 0,0
24.03.2017 16:00:00 9,3 1,3 11 6 - - O 0,0
24.03.2017 15:00:00 9,1 1,8 8 4 - - OSO 0,0
24.03.2017 14:00:00 8,4 1,1 9 5 - - OSO 0,0
24.03.2017 13:00:00 7,6 0,4 9 5 - - O 0,0
24.03.2017 12:00:00 6,3 0,9 9 5 - - OSO 0,0
24.03.2017 11:00:00 5,0 0,4 13 7 - - SSO 0,0
24.03.2017 10:00:00 3,8 0,2 15 8 - - S 0,0
24.03.2017 09:00:00 2,7 0,3 8 4 - - SE 0,0
24.03.2017 08:00:00 1,0 -0,9 8 4 - - SE 0,0
24.03.2017 07:00:00 0,1 -1,3 9 5 - - SSE 0,0
24.03.2017 06:00:00 1,4 -0,2 2 1 - - N 0,0
24.03.2017 05:00:00 1,4 -0,5 5 3 - - SE 0,0
24.03.2017 04:00:00 1,5 -0,6 11 6 - - ESE 0,0
24.03.2017 03:00:00 1,7 -0,5 11 6 - - ESE 0,0
24.03.2017 02:00:00 1,8 -0,3 9 5 - - E 0,0
24.03.2017 01:00:00 1,9 -0,2 9 5 - - E 0,0
24.03.2017 00:00:00 2,2 0,0 9 5 - - E 0,0
23.03.2017 23:00:00 2,7 0,5 8 4 - - ESE 0,0
23.03.2017 22:00:00 2,0 0,3 11 6 - - E 0,0
23.03.2017 21:00:00 2,4 0,8 11 6 - - ENE 0,0
23.03.2017 20:00:00 3,2 1,2 13 7 - - ENE 0,0
23.03.2017 19:00:00 4,2 1,9 16 9 - - ENE 0,0
23.03.2017 18:00:00 4,6 2,1 21 11 - - ENE 0,0
23.03.2017 17:00:00 5,0 1,9 18 10 - - ENE 0,0
23.03.2017 16:00:00 5,4 2,4 24 13 - - ENE 0,0
23.03.2017 15:00:00 5,6 2,5 22 12 - - ENE 0,0
23.03.2017 14:00:00 5,7 2,7 26 14 - - E 0,0
23.03.2017 13:00:00 5,2 2,8 26 14 - - E 0,0
23.03.2017 12:00:00 4,8 3,7 28 15 - - ENE 0,0
23.03.2017 11:00:00 3,4 2,7 28 15 - - ENE 0,2
23.03.2017 10:00:00 3,1 2,6 24 13 48 26 ENE 0,2
23.03.2017 09:00:00 2,6 2,1 35 19 50 27 NE 0,2
23.03.2017 08:00:00 1,9 1,3 29 16 - - ENE 0,2
23.03.2017 07:00:00 1,9 1,2 28 15 - - NE 0,4
23.03.2017 06:00:00 1,7 1,1 34 18 55 30 NE 0,2
23.03.2017 05:00:00 1,9 0,9 37 20 55 30 NE 0,2
23.03.2017 04:00:00 2,1 1,1 34 18 55 30 NE 0,0
23.03.2017 03:00:00 2,4 1,0 39 21 52 28 NE 0,0
23.03.2017 02:00:00 2,2 1,2 35 19 54 29 NE 0,0
23.03.2017 01:00:00 2,1 1,5 39 21 55 30 ENE 0,6
23.03.2017 00:00:00 1,9 1,3 37 20 55 30 NE 0,4
22.03.2017 23:00:00 1,9 1,2 37 20 57 31 NE 0,0
22.03.2017 22:00:00 1,5 1,2 35 19 54 29 NE 0,2
22.03.2017 21:00:00 1,3 0,9 37 20 57 31 NE 0,8
22.03.2017 20:00:00 1,5 0,8 34 18 55 30 ENE 0,4
22.03.2017 19:00:00 2,4 0,8 35 19 54 29 ENE 0,2
22.03.2017 18:00:00 2,6 1,2 34 18 55 30 ENE 0,4
22.03.2017 17:00:00 2,0 1,0 41 22 63 34 ENE 0,6
22.03.2017 16:00:00 3,9 0,6 39 21 57 31 ENE 0,0
22.03.2017 15:00:00 3,7 0,0 37 20 59 32 ENE 0,0
22.03.2017 14:00:00 3,3 0,8 35 19 55 30 ENE 0,0
22.03.2017 13:00:00 2,3 0,4 35 19 46 25 ENE 0,0
22.03.2017 12:00:00 2,2 -0,3 31 17 46 25 ENE 0,0
22.03.2017 11:00:00 - - - - - - - -

tt = Temperatura
td = dewpoint
ff = velocità del vento
fx = gusts
dd = direzione del vento
rr = precipitazioni

Stazioni seguenti

WeatherPro
AMSI
MeteoEarth